Dublin, Ireland

7:28 AM IST on August 21, 2017 (GMT +0100)
Dublin International

Weather History for EIDW - April, 2014

Change the Weather History Date:

Friday, April 18, 2014

  Actual Average Record
Temperature  
Mean Temperature 42 °F -  
Max Temperature 53 °F 56 °F 60 °F (2011)
Min Temperature 30 °F 42 °F 30 °F (2014)
Degree Days  
Heating Degree Days 24    
Moisture  
Dew Point 37 °F    
Average Humidity 75    
Maximum Humidity 100    
Minimum Humidity 37    
Precipitation  
Precipitation 0.00 in 0.07 in - ()
Sea Level Pressure  
Sea Level Pressure 30.19 in    
Wind  
Wind Speed 5 mph ()    
Max Wind Speed 10 mph    
Max Gust Speed -    
Visibility 7.9 miles    
Events      
Averages and records for this station are not official NWS values.
T = Trace of Precipitation, MM = Missing Value Source: Averaged Metar Reports

Daily Weather History Graph

Daily Weather History Graph

Search for Another Location

Airport or City:

Trip Planner

Search our weather history database for the weather conditions in past years. The results will help you decide how hot, cold, wet, or windy it might be!

Date:

Astronomy

Apr. 18, 2014 Rise Set
Actual Time 6:18 AM IST 8:31 PM IST
Civil Twilight 5:41 AM IST 9:08 PM IST
Nautical Twilight 4:53 AM IST 9:57 PM IST
Astronomical Twilight 3:57 AM IST 10:53 PM IST
Moon No Moon Rise 8:10 AM IST (4/18)
Length of Visible Light 15h 27m
Length of Day
14h 12m
Waning Gibbous, 89% of the Moon is Illuminated
Apr 18
Waning Gibbous
Apr 22
Last Quarter
Apr 29
New
May 7
First Quarter
May 14
Full

Hourly Weather History & Observations

Time (IST) Temp. Windchill Dew Point Humidity Pressure Visibility Wind Dir Wind Speed Gust Speed Precip Events Conditions
12:00 AM 44 °F - 41 °F 84% 30.22 in 16 mi North 6.7 mph - -   Mostly Cloudy
12:00 AM 44.6 °F 41.4 °F 41.0 °F 87% 30.18 in 6.2 mi North 5.8 mph - N/A   Mostly Cloudy
12:30 AM 42.8 °F 40.1 °F 41.0 °F 93% 30.18 in 6.2 mi NNW 4.6 mph - N/A   Scattered Clouds
1:00 AM 42 °F - 39 °F 86% 30.22 in 16 mi WSW 4.5 mph - -   Partly Cloudy
1:00 AM 41.0 °F 39.0 °F 39.2 °F 93% 30.18 in 6.2 mi Variable 3.5 mph - N/A   Scattered Clouds
1:30 AM 39.2 °F 37.0 °F 35.6 °F 87% 30.21 in 6.2 mi West 3.5 mph - N/A   Scattered Clouds
2:00 AM 36 °F - 33 °F 87% 30.22 in 16 mi West 4.5 mph - -   Scattered Clouds
2:00 AM 37.4 °F 32.8 °F 35.6 °F 93% 30.18 in 6.2 mi West 5.8 mph - N/A   Scattered Clouds
2:30 AM 35.6 °F 30.7 °F 33.8 °F 93% 30.18 in 6.2 mi WNW 5.8 mph - N/A   Scattered Clouds
3:00 AM 36 °F - 35 °F 95% 30.22 in 16 mi WNW 6.7 mph - -   Scattered Clouds
3:00 AM 35.6 °F 29.9 °F 35.6 °F 100% 30.18 in 6.2 mi WNW 6.9 mph - N/A   Scattered Clouds
3:30 AM 33.8 °F 28.6 °F 33.8 °F 100% 30.18 in 6.2 mi West 5.8 mph - N/A   Scattered Clouds
4:00 AM 35 °F - 34 °F 94% 30.22 in 16 mi West 4.5 mph - -   Scattered Clouds
4:00 AM 33.8 °F - 33.8 °F 100% 30.18 in 6.2 mi Variable 2.3 mph - N/A   Scattered Clouds
4:30 AM 33.8 °F 28.6 °F 33.8 °F 100% 30.18 in 6.2 mi NW 5.8 mph - N/A   Scattered Clouds
5:00 AM 35 °F - 33 °F 88% 30.21 in 16 mi NNW 6.7 mph - -   Scattered Clouds
5:00 AM 35.6 °F 31.7 °F 33.8 °F 93% 30.18 in 6.2 mi NNW 4.6 mph - N/A   Scattered Clouds
5:30 AM 35.6 °F - 33.8 °F 93% 30.18 in 6.2 mi Variable 2.3 mph - N/A   Scattered Clouds
6:00 AM 32 °F - 32 °F 99% 30.21 in 19 mi WNW 4.5 mph - -   Scattered Clouds
6:00 AM 32.0 °F 28.7 °F 32.0 °F 100% 30.18 in 6.2 mi NW 3.5 mph - N/A   Partly Cloudy
6:30 AM 30.2 °F - 30.2 °F 100% 30.18 in 6.2 mi NNW 2.3 mph - N/A   Partly Cloudy
7:00 AM 33 °F - 33 °F 97% 30.22 in 22 mi NW 4.5 mph - -   Scattered Clouds
7:00 AM 32.0 °F 28.7 °F 32.0 °F 100% 30.18 in 6.2 mi Variable 3.5 mph - N/A   Partly Cloudy
7:30 AM 35.6 °F 32.8 °F 35.6 °F 100% 30.18 in - NNW 3.5 mph - N/A   Clear
8:00 AM 41 °F - 38 °F 85% 30.22 in 22 mi North 4.5 mph - -   Clear
8:00 AM 41.0 °F 38.0 °F 37.4 °F 87% 30.21 in - North 4.6 mph - N/A   Clear
8:30 AM 42.8 °F 40.1 °F 39.2 °F 87% 30.21 in - North 4.6 mph - N/A   Clear
9:00 AM 46 °F - 38 °F 66% 30.23 in 22 mi NNW 2.2 mph - -   Scattered Clouds
9:00 AM 46.4 °F - 37.4 °F 71% 30.21 in 6.2 mi Variable 2.3 mph - N/A   Mostly Cloudy
9:30 AM 46.4 °F - 37.4 °F 71% 30.21 in 6.2 mi Variable 2.3 mph - N/A   Mostly Cloudy
10:00 AM 49 °F - 37 °F 52% 30.23 in 25 mi WSW 2.2 mph - -   Scattered Clouds
10:00 AM 50.0 °F - 37.4 °F 62% 30.21 in 6.2 mi Variable 1.2 mph - N/A   Scattered Clouds
10:30 AM 50.0 °F - 35.6 °F 58% 30.21 in 6.2 mi Variable 3.5 mph - N/A   Scattered Clouds
11:00 AM 50 °F - 38 °F 52% 30.23 in 28 mi West 2.2 mph - -   Scattered Clouds
11:00 AM 50.0 °F - 37.4 °F 62% 30.21 in 6.2 mi Variable 2.3 mph - N/A   Partly Cloudy
11:30 AM 51.8 °F - 35.6 °F 54% 30.21 in 6.2 mi NNE 5.8 mph - N/A   Partly Cloudy
12:00 PM 52 °F - 36 °F 44% 30.23 in 28 mi East 6.7 mph - -   Scattered Clouds
12:00 PM 51.8 °F - 37.4 °F 58% 30.21 in 6.2 mi East 6.9 mph - N/A   Partly Cloudy
12:30 PM 51.8 °F - 39.2 °F 62% 30.21 in 6.2 mi ENE 6.9 mph - N/A   Partly Cloudy
1:00 PM 52 °F - 42 °F 58% 30.22 in 28 mi East 6.7 mph - -   Scattered Clouds
1:00 PM 51.8 °F - 41.0 °F 67% 30.21 in 6.2 mi ENE 8.1 mph - N/A   Partly Cloudy
1:30 PM 53.6 °F - 41.0 °F 62% 30.21 in 6.2 mi ENE 6.9 mph - N/A   Partly Cloudy
2:00 PM 53 °F - 38 °F 45% 30.21 in 28 mi East 6.7 mph - -   Scattered Clouds
2:00 PM 53.6 °F - 41.0 °F 62% 30.21 in 6.2 mi ESE 6.9 mph - N/A   Partly Cloudy
2:30 PM 53.6 °F - 37.4 °F 54% 30.18 in 6.2 mi East 6.9 mph - N/A   Partly Cloudy
3:00 PM 53 °F - 40 °F 49% 30.20 in 28 mi East 8.9 mph - -   Scattered Clouds
3:00 PM 53.6 °F - 37.4 °F 54% 30.18 in 6.2 mi East 8.1 mph - N/A   Partly Cloudy
3:30 PM 53.6 °F - 35.6 °F 51% 30.18 in 6.2 mi East 10.4 mph - N/A   Partly Cloudy
4:00 PM 52 °F - 35 °F 40% 30.18 in 25 mi East 8.9 mph - -   Scattered Clouds
4:00 PM 53.6 °F - 35.6 °F 51% 30.18 in 6.2 mi East 10.4 mph - N/A   Partly Cloudy
4:30 PM 51.8 °F - 33.8 °F 50% 30.18 in 6.2 mi East 9.2 mph - N/A   Partly Cloudy
5:00 PM 52 °F - 33 °F 37% 30.18 in 25 mi ESE 8.9 mph - -   Scattered Clouds
5:00 PM 51.8 °F - 35.6 °F 54% 30.15 in 6.2 mi ESE 9.2 mph - N/A   Partly Cloudy
5:30 PM 51.8 °F - 35.6 °F 54% 30.15 in 6.2 mi East 8.1 mph - N/A   Partly Cloudy
6:00 PM 51 °F - 38 °F 49% 30.17 in 25 mi East 8.9 mph - -   Scattered Clouds
6:00 PM 51.8 °F - 39.2 °F 62% 30.15 in 6.2 mi East 8.1 mph - N/A   Partly Cloudy
6:30 PM 50.0 °F - 39.2 °F 66% 30.15 in 6.2 mi East 10.4 mph - N/A   Partly Cloudy
7:00 PM 48 °F - 39 °F 63% 30.17 in 37 mi East 8.9 mph - -   Scattered Clouds
7:00 PM 48.2 °F - 39.2 °F 71% 30.15 in 6.2 mi East 9.2 mph - N/A   Partly Cloudy
7:30 PM 46.4 °F 41.9 °F 37.4 °F 71% 30.15 in 6.2 mi East 9.2 mph - N/A   Partly Cloudy
8:00 PM 45 °F - 36 °F 62% 30.17 in 37 mi East 8.9 mph - -   Scattered Clouds
8:00 PM 44.6 °F 40.2 °F 37.4 °F 76% 30.15 in 6.2 mi East 8.1 mph - N/A   Partly Cloudy
8:30 PM 42.8 °F 38.0 °F 37.4 °F 81% 30.15 in 6.2 mi East 8.1 mph - N/A   Partly Cloudy
9:00 PM 41 °F - 37 °F 80% 30.17 in 22 mi East 8.9 mph - -   Scattered Clouds
9:00 PM 41.0 °F 35.8 °F 37.4 °F 87% 30.15 in 6.2 mi East 8.1 mph - N/A   Scattered Clouds
9:30 PM 39.2 °F 33.6 °F 35.6 °F 87% 30.15 in 6.2 mi East 8.1 mph - N/A   Scattered Clouds
10:00 PM 39 °F - 36 °F 86% 30.17 in 16 mi East 8.9 mph - -   Scattered Clouds
10:00 PM 39.2 °F 33.6 °F 35.6 °F 87% 30.15 in 6.2 mi East 8.1 mph - N/A   Scattered Clouds
10:30 PM 39.2 °F 33.0 °F 37.4 °F 93% 30.15 in 6.2 mi East 9.2 mph - N/A   Scattered Clouds
11:00 PM 38 °F - 36 °F 89% 30.17 in 16 mi ESE 6.7 mph - -   Scattered Clouds
11:00 PM 37.4 °F 31.4 °F 37.4 °F 100% 30.15 in 6.2 mi ESE 8.1 mph - N/A   Scattered Clouds
11:30 PM 39.2 °F 35.0 °F 37.4 °F 93% 30.12 in 6.2 mi ESE 5.8 mph - N/A   Scattered Clouds